FALCON HEAVY R/B, 60134

Orbit data source: Space-Track

FALCON HEAVY R/B, 60134 is space debris in HEO originally from a launch on Tue, 25 Jun 2024 UTC launched from the Air Force Eastern Test Range (AFETR). Debris objects in space refer to the collection of defunct objects orbiting the Earth. Examples of debris include non-operational satellites, rocket bodies, and fragments generated from explosions, collisions, or faulty payload assembly.

Loading next visibility...
Identifier
60134, 2024-119B
Orbit
HEO
Last TLE update
1 day ago
Origin
Manufacturer
SpaceX
Mission
Spacecraft
Bus & Motor
F9ST2, Unknown motor
Mass
~4,000 kg wet, ~4,000 kg dry
Launch date (UTC)
2024-06-25 (10 months ago)
Launch vehicle
Unknown
Launch site
Air Force Eastern Test Range (AFETR)
Object type
Payload
Rocket body
Debris
Shape & HBR
Cyl, Unknown HBR
Radar Cross Section
49.816 m², Large (>1 m²)

Expand to show TLE details & history

TLE from 1 day ago
0 FALCON HEAVY R/B
1 60134U 24119B   25128.48257215 -.00000093  00000-0  00000-0 0  9996
2 60134   5.0742  82.0191 2994012 206.6288 134.2473  1.51715322  4818
Epoch: 2025-05-08T11:34Z
Definitive object data (Epoch: 2025-05-08T11:34:54.233Z)
Latitude
-0.00001°
Longitude
41.66769°
Altitude
33,382.879 km
Speed
2.755 km/s
True Right ascension
05h 27m 47s
True Declination
0° 00' 00"
Sunlit
Object was in daylight at TLE epoch
Visualization TLE readout
Latitude
-4.87785°
Longitude
-64.05153°
Altitude
17,882.407 km
Speed
4.517 km/s
Apparent Right ascension
22h 21m 43s
Apparent Declination
-17° 38' 08"
Sunlit
Object is in daylight
Visualization observer readout
Local Sidereal Time
22:37:24
Azimuth
184.421° SSW
Elevation
32.332°
Doppler factor
1
Orbital elements
Apogee altitude
35,195.084 km
Perigee altitude
16,036.917 km
Semi-major axis
31,994.138 km
Eccentricity
0.2994012
Inclination
5.0742°
RAAN
82.0191°
Arg. of periapsis
206.6288°
True anomaly
153.36631°
Mean anomaly
134.2473°
Eccentric anomaly
144.2659°
Mean motion
0.37926 °/min
BSTAR
Unknown
Orbital period
949.22 mins
Loading maneuver chart data...
Loading SW <> Apogee altitude chart data...
Loading historical data...
Loading historical data...
Loading historical data...
Loading historical data...
Loading historical data...
Loading historical data...
Loading historical data...
Other satellites on launch #119 in the year 2024 (2024-06-25 UTC)

FALCON HEAVY R/B Visibility forecast

Observer location: undefined°, undefined°

Span
Click to sort rows by Start time (UTC) header in descending order
Start Az.
Max El. time (UTC)
Max El. Az.
Max El.
End time (UTC)
End Az.
812 mins2025-05-09 14:27:15.466Z184.418° SSW2025-05-09 23:58:15.466Z143.007° SSE33.609°2025-05-10 03:59:15.466Z110.525° ESE
|